Showing default

GHOST-2, 56197

Orbit data source: Space-Track

GHOST-2, 56197 is a payload satellite owned by Orbital Sidekick (US) in SSO that was launched on Sat, 15 Apr 2023 UTC via an FALCON 9 launch vehicle from the Air Force Western Test Range (AFWTR). Payload-class satellites include a variety of spacecraft equipped with specific instruments for various scientific and technological missions. These include communications satellites like Starlink; space stations such as the ISS; scientific satellites like the Hubble; Earth observation satellites from companies like Planet Labs, Umbra, and HawkEye 360; GPS; miniature CubeSats for education and research; and military/defense satellites.

Loading next visibility...
Identifier
56197, 2023-054V
Orbit
SSO
Country
Flag of USUS
Related business
Manufacturer
Astro Digital
Mission
Operational Commercial Imaging
Bus & Motor
CORVUS-XL, Unknown motor
Mass
85 kg wet, 85 kg dry
Launch date (UTC)
2023-04-15 (3 years ago)
Launch vehicle
FALCON 9
Launch site
Air Force Western Test Range (AFWTR)
Object type
Payload
Rocket body
Debris
Shape & HBR
Box + 1 Dish, 1.0 m
Radar Cross Section
0.425 m², Medium (>0.1 m² and < 1m²)

Expand to show TLE details & history
Last TLE update: 8 hours ago

TLE from 8 hours ago
0 GHOST-2
1 56197U 23054V   25310.25794455  .00258144  00000-0  10596-2 0  9991
2 56197  97.3091 223.1208 0008448  99.6250 260.5975 15.85305659144709
Epoch: 2025-11-06T06:11Z
TLE epoch observation values (Epoch: 2025-11-06T06:11:26.409Z)
Latitude
-0.00004°
Longitude
84.54192°
Altitude
319.574 km
Speed
7.716 km/s
True Right ascension
14h 52m 28s
True Declination
0° 00' 00"
Sunlit
Object was in daylight at epoch
Visualization orbit readout
Latitude
Unknown
Longitude
Unknown
Altitude
Unknown
Speed
Unknown
Apparent Right ascension
Unknown
Apparent Declination
Unknown
Sunlit
N/A
Visualization observer readout
Local Sidereal Time
10:37:51
Azimuth
Unknown
Elevation
Unknown
Doppler factor
Unknown
Orbital elements
Apogee altitude
317.991 km
Perigee altitude
306.687 km
Semi-major axis
6,690.476 km
Eccentricity
0.00084
Inclination
97.3091°
RAAN
223.1208°
Arg. of periapsis
99.625°
True anomaly
260.50201°
Mean anomaly
260.5975°
Eccentric anomaly
260.54975°
Mean motion
3.96604 °/min
Orbital period
90.77 mins
BSTAR
0.0010596
Loading maneuver chart data...
Computing Atmospheric mass density...
Loading historical data...
Loading historical data...
Loading historical data...
Loading historical data...
Loading historical data...
Loading historical data...
Loading historical data...

Documentation

Showing up to 5 results
|